Starlink 3306

operational
NORAD ID: 50163 Int'l Des: 2021-125 Owner: SPXS Country: US Constellation: starlink
LEOCIRCULAR

关于 Starlink 3306

正在加载描述...

实时位置

正在加载3D地球...

即将过境

高度历史

Altitude vs Time

uPlot chart will show altitude changes over time

两行轨道根数

1 50163U 21125H 25351.02131984 .00000948 00000-0 77672-4 0 9994
2 50163 53.2166 250.2215 0001555 85.8466 274.2703 15.08837522224251
Epoch: Dec 17, 2025 • Age: 20 hours

当前状态

高度 557.4 km
速度 7.58 km/s
星下点 -48.51°S, 149.35°E
发射日期 Dec 18, 2021
运行时间 3.9 years
类型 internet

技术详情

分类 Payload
质量 290.00 kg
干质量 270.00 kg
总质量 290.00 kg
长度 0.20 m
直径 2.80 m
跨度 9.00 m
形状 Box + pan
制造商 SPXS
平台类型 Starlink
阶段状态 In Orbit
所有者/国家 SPXS/US

大型星座

Loading constellations...